Satellite: PHARMSAT
Catalog number: 35002
Epoch time:      10217.52820030
Element set:     331
Inclination:      040.4698 deg
RA of node:       275.4657 deg
Eccentricity:    0.0024827
Arg of perigee:   015.3268 deg
Mean anomaly:     344.8296 deg
Mean motion:   15.42688499 rev/day
Decay rate:      4.455e-05 rev/day^2
Epoch rev:            6827
Checksum:              304

Satellite: HAWKSAT1
Catalog number: 35003
Epoch time:      10216.55710228
Element set:    0360
Inclination:      040.4619 deg
RA of node:       274.6266 deg
Eccentricity:    0.0022002
Arg of perigee:   025.2724 deg
Mean anomaly:     334.9163 deg
Mean motion:   15.46171552 rev/day
Decay rate:      7.996e-05 rev/day^2
Epoch rev:           06820
Checksum:              267

Satellite: CP6
Catalog number: 35004
Epoch time:      10217.36500589
Element set:     351
Inclination:      040.4612 deg
RA of node:       268.4205 deg
Eccentricity:    0.0019165
Arg of perigee:   035.2567 deg
Mean anomaly:     325.0021 deg
Mean motion:   15.47172334 rev/day
Decay rate:     1.0633e-04 rev/day^2
Epoch rev:            6833
Checksum:              258

Satellite: AEROCUB3
Catalog number: 35005
Epoch time:      10217.16320054
Element set:     400
Inclination:      040.4688 deg
RA of node:       264.5020 deg
Eccentricity:    0.0019027
Arg of perigee:   053.4675 deg
Mean anomaly:     306.7880 deg
Mean motion:   15.54262055 rev/day
Decay rate:     3.3600e-04 rev/day^2
Epoch rev:            6836
Checksum:              259

Satellite: CASTOR
Catalog number: 35694
Epoch time:      10217.66217299
Element set:     617
Inclination:      051.6298 deg
RA of node:       292.9015 deg
Eccentricity:    0.0007628
Arg of perigee:   358.8357 deg
Mean anomaly:     001.2733 deg
Mean motion:   16.18241564 rev/day
Decay rate:    4.77454e-03 rev/day^2
Epoch rev:            5902
Checksum:              322

Satellite: METEOR-M
Catalog number: 35865
Epoch time:      10217.74627673
Element set:     532
Inclination:      098.7548 deg
RA of node:       271.1826 deg
Eccentricity:    0.0001648
Arg of perigee:   214.7898 deg
Mean anomaly:     145.3144 deg
Mean motion:   14.21831103 rev/day
Decay rate:       1.76e-06 rev/day^2
Epoch rev:            4576
Checksum:              308

Satellite: RS-38
Catalog number: 35869
Epoch time:      10217.78276443
Element set:     546
Inclination:      098.7534 deg
RA of node:       271.2541 deg
Eccentricity:    0.0003902
Arg of perigee:   214.2368 deg
Mean anomaly:     145.8521 deg
Mean motion:   14.21986210 rev/day
Decay rate:       1.77e-06 rev/day^2
Epoch rev:            4577
Checksum:              315

/EX


_______________________________________________
Via the Keps mailing list courtesy of AMSAT-NA
http://amsat.org/mailman/listinfo/keps

--- ViaMAIL!/WC v1.60d
 * Origin: Chowdanet (401-724-4410) telnet://chowdanet.com  (1:323/120)